www.pogodaiklimat.ru

Погода и климат >> Архив погоды >> Япония >> Миякодзима


ПОГОДА в Миякодзиме

  • Прогноз погоды в Миякодзиме
  • Монитор погоды в Миякодзиме

АРХИВ ПОГОДЫ в Миякодзиме

Время (UTC), дата Ветер
(напр.,м/с)
 
Видим.   Явления Облачность Т
(С)
Тd
(С)
f
(%)
Тe
(С)
Тes
(С)
Комфортность P
(гПа)
Po
(гПа)
Тmin
(С)
Tmax
(С)
R
(мм)
R24
(мм)
S
(см)
01 18.03 Ю 5 н/о н/о +23.1 +16.7 67 +28 +28 душно 1018.1 1013.3
02 18.03 Ю 6 н/о н/о +23.8 +17.6 68 +28 +28 душно 1017.8 1013.0
03 18.03 Ю 5 20 км 9/9
[Cu Sc Ac As]
+24.2 +18.2 69 +29 +29 душно 1017.2 1012.4
04 18.03 Ю 6 н/о н/о +25.1 +18.3 66 +30 +30 душно 1016.3 1011.5
05 18.03 Ю 6 н/о н/о +23.3 +18.0 72 +29 +29 душно 1015.9 1011.1
06 18.03 Ю 4 6000 м слаб. дождь 10/9
[Cu Sc Ac As]
+22.7 +19.1 80 +29 +29 очень
душно
1015.1 1010.3 0.0
07 18.03 Ю 4 н/о н/о +21.3 +19.8 91 +26 +26 душно 1014.9 1010.1
08 18.03 ЮВ 3 н/о н/о +21.6 +19.5 88 +27 +27 душно 1014.8 1010.0
09 18.03 СЗ 2 3000 м дождь 10/9
[Cu Sc As op]
+20.9 +20.1 95 +27 +27 душно 1015.3 1010.5
10 18.03 Ю 2 н/о н/о +21.1 +20.6 97 +26 +26 душно 1015.3 1010.5
11 18.03 Ю 2 н/о н/о +20.9 +20.2 96 +27 +27 душно 1015.7 1010.8
12 18.03 Ю 2 10 км {дождь} 10/10
[Cu Sc]
+21.2 +20.5 96 +26 +26 душно 1015.9 1011.1 +25.3 10
13 18.03 Ю 2 н/о н/о +21.4 +20.2 93 +27 +27 душно 1015.9 1011.1
14 18.03 Ю 3 н/о н/о +21.6 +20.4 93 +27 +27 душно 1016.0 1011.2
15 18.03 ЮЗ 4 н/о н/о +22.3 +20.9 92 +29 +29 очень
душно
1015.9 1011.1
16 18.03 З 2 н/о н/о +22.1 +20.7 92 +28 +28 душно 1015.5 1010.7
17 18.03 З 2 н/о н/о +22.2 +21.0 93 +29 +29 очень
душно
1015.1 1010.3
18 18.03 СЗ 4 10 км {ливн. осадки} 10/10
[Cu med, cong]
+22.2 +20.3 89 +28 +28 душно 1014.8 1010.0 0.0
19 18.03 С 4 н/о н/о +21.7 +20.0 90 +27 +27 душно 1014.4 1009.6
20 18.03 С 5 н/о н/о +21.6 +19.7 89 +27 +27 душно 1014.5 1009.7
21 18.03 С 6 10 км слаб. ливневой дождь 10/10
[Cu med, cong]
+21.2 +19.1 88 +26 +26 душно 1015.2 1010.4
22 18.03 С 5 н/о н/о +20.7 +18.3 86 +25 +25 комфорт 1015.9 1011.0
23 18.03 С 4 н/о н/о +21.1 +17.9 82 +25 +25 комфорт 1017.0 1012.1
00 19.03 С 5 15 км {ливн. осадки} 9/9
[Sc diur, vesp]
+21.0 +17.0 78 +25 +25 комфорт 1017.8 1012.9 +20.7 0.0
01 19.03 С 5 н/о н/о +21.7 +17.1 75 +26 +26 душно 1018.1 1013.3
02 19.03 СВ 6 н/о н/о +21.7 +16.2 71 +25 +25 комфорт 1018.4 1013.6
03 19.03 С 6 20 км 8/5
[Cu Sc Ac trans]
+21.9 +16.4 71 +26 +28 душно 1018.2 1013.4
04 19.03 СВ 7 н/о н/о +22.2 +16.5 70 +26 +26 душно 1017.7 1012.9
05 19.03 СВ 7 н/о н/о +22.1 +16.4 70 +26 +26 душно 1017.3 1012.5
06 19.03 СВ 7 20 км 8/8
[Sc diur, vesp Ac trans]
+21.7 +15.8 69 +25 +26 комфорт 1016.6 1011.8
07 19.03 С 6 н/о н/о +21.4 +15.5 69 +25 +25 комфорт 1016.6 1011.8
08 19.03 СВ 5 н/о н/о +20.9 +15.5 71 +24 +24 комфорт 1016.9 1012.0
09 19.03 СВ 5 15 км 8/8
[Sc diur, vesp Ac trans]
+20.7 +15.3 71 +24 +24 комфорт 1017.1 1012.2
10 19.03 СВ 5 н/о н/о +20.2 +15.2 73 +23 +23 комфорт 1017.3 1012.4
11 19.03 СВ 4 н/о н/о +20.2 +15.4 74 +23 +23 комфорт 1017.8 1012.9
12 19.03 СВ 3 20 км 3/3
[Sc diur, vesp]
+20.0 +15.2 74 +23 +23 комфорт 1018.3 1013.4 +22.6
13 19.03 СВ 3 н/о н/о +19.8 +15.7 77 +22 +22 комфорт 1018.4 1013.5
14 19.03 СВ 3 н/о н/о +19.7 +15.4 76 +22 +22 комфорт 1018.3 1013.4
15 19.03 В 2 н/о н/о +19.5 +16.0 80 +22 +22 комфорт 1018.3 1013.4
16 19.03 В 2 н/о н/о +19.7 +16.4 81 +23 +23 комфорт 1017.9 1013.0
17 19.03 СВ 1 н/о н/о +19.8 +16.3 80 +23 +23 комфорт 1017.1 1012.2
18 19.03 В 2 25 км 9/9
[Cu Sc]
+20.2 +16.3 78 +24 +24 комфорт 1016.5 1011.6
19 19.03 В 2 н/о н/о +20.3 +16.8 80 +24 +24 комфорт 1016.5 1011.6
21 19.03 В 4 20 км 9/9
[Cu Sc]
+20.3 +17.3 83 +24 +24 комфорт 1016.2 1011.3
22 19.03 ЮВ 2 н/о н/о +20.2 +17.8 86 +24 +24 комфорт 1016.6 1011.7
23 19.03 ЮВ 4 н/о н/о +21.3 +18.5 84 +26 +26 душно 1016.7 1011.9
00 20.03 ЮВ 4 20 км 5/3
[Cu Sc Ac trans]
+23.0 +19.0 78 +29 +32 очень
душно
1016.8 1012.0 +19.3
01 20.03 Ю 4 н/о н/о +23.7 +19.2 76 +29 +29 душно 1016.7 1011.9
02 20.03 ЮВ 5 н/о н/о +23.8 +19.5 77 +29 +29 душно 1016.2 1011.4
03 20.03 ЮВ 4 25 км 1/1
[Cu Sc Ac trans]
+25.3 +19.7 71 +31 +41 очень
душно
1015.6 1010.8
04 20.03 ЮВ 5 н/о н/о +25.6 +20.2 72 +32 +32 очень
душно
1014.9 1010.1
05 20.03 Ю 5 н/о н/о +25.3 +20.3 74 +31 +31 очень
душно
1014.3 1009.5
06 20.03 Ю 5 20 км 5/5
[Cu hum Ac trans]
+26.1 +21.3 75 +33 +36 очень
душно
1013.2 1008.5
07 20.03 Ю 5 н/о н/о +25.5 +21.0 76 +32 +32 очень
душно
1012.7 1007.9
08 20.03 Ю 6 н/о н/о +25.0 +21.5 81 +32 +32 очень
душно
1012.6 1007.8
09 20.03 Ю 5 15 км 8/8
[Cu hum]
+24.5 +22.0 86 +32 +32 очень
душно
1012.7 1007.9
10 20.03 Ю 5 н/о н/о +24.1 +22.4 90 +31 +31 очень
душно
1013.0 1008.2
11 20.03 Ю 6 н/о н/о +24.2 +22.5 90 +32 +32 очень
душно
1013.5 1008.7
12 20.03 Ю 5 10 км 6/6
[Cu hum]
+24.1 +22.5 91 +32 +32 очень
душно
1013.9 1009.1 +26.2
13 20.03 Ю 5 н/о н/о +23.9 +22.3 91 +31 +31 очень
душно
1014.5 1009.7
14 20.03 Ю 4 н/о н/о +24.0 +22.3 90 +31 +31 очень
душно
1014.7 1009.9
15 20.03 Ю 5 н/о н/о +23.8 +22.2 91 +31 +31 очень
душно
1014.4 1009.6
16 20.03 Ю 5 н/о н/о +23.6 +22.0 91 +30 +30 очень
душно
1014.2 1009.4
17 20.03 Ю 5 н/о н/о +23.4 +22.0 92 +32 +32 очень
душно
1013.7 1008.9
18 20.03 Ю 5 10 км 9/9
[Cu hum]
+23.7 +22.0 90 +31 +31 очень
душно
1013.5 1008.7
19 20.03 Ю 5 н/о н/о +23.5 +21.8 90 +30 +30 очень
душно
1013.0 1008.2
20 20.03 Ю 5 н/о н/о +23.6 +21.9 90 +30 +30 очень
душно
1013.1 1008.3
21 20.03 Ю 4 10 км 9/9
[Cu Sc]
+23.6 +22.2 92 +31 +31 очень
душно
1013.4 1008.6
22 20.03 Ю 4 н/о н/о +23.6 +22.2 92 +31 +31 очень
душно
1013.5 1008.7
23 20.03 Ю 5 н/о н/о +24.2 +22.6 91 +32 +32 очень
душно
1013.7 1008.9
00 21.03 Ю 6 15 км 1/1
[Cu med, cong]
+25.3 +22.8 86 +33 +36 очень
душно
1013.8 1009.0 +23.3
01 21.03 Ю 7 н/о н/о +26.1 +22.6 81 +34 +34 очень
душно
1013.8 1009.1
02 21.03 Ю 8 н/о н/о +26.5 +22.6 79 +35 +35 очень
душно
1013.5 1008.8
03 21.03 Ю 8 15 км 4/4
[Cu med, cong]
+27.1 +22.9 78 +36 +38 очень
душно
1013.3 1008.6
04 21.03 Ю 8 н/о н/о +26.5 +22.6 79 +35 +35 очень
душно
1012.9 1008.2
05 21.03 Ю 8 н/о н/о +26.6 +22.9 80 +35 +35 очень
душно
1012.1 1007.4
06 21.03 Ю 7 15 км 6/6
[Cu med, cong]
+26.3 +22.6 80 +35 +36 очень
душно
1011.4 1006.7
07 21.03 Ю 7 н/о н/о +26.4 +23.1 82 +35 +35 очень
душно
1011.0 1006.3
08 21.03 Ю 7 н/о н/о +26.3 +23.0 82 +35 +35 очень
душно
1010.9 1006.2
09 21.03 Ю 6 15 км 3/3
[Cu hum]
+25.5 +23.0 86 +34 +34 очень
душно
1011.3 1006.6
10 21.03 Ю 6 н/о н/о +24.7 +23.1 91 +33 +33 очень
душно
1011.2 1006.4
11 21.03 Ю 6 н/о н/о +24.5 +23.1 92 +33 +33 очень
душно
1011.7 1006.9
12 21.03 ЮЗ 4 10 км 9/9
[Cu med, cong]
+24.7 +23.3 92 +33 +33 очень
душно
1012.5 1007.7 +27.6
13 21.03 Ю 4 н/о н/о +24.6 +23.0 91 +33 +33 очень
душно
1013.0 1008.2
15 21.03 ЮЗ 2 н/о н/о +24.4 +23.2 93 +33 +33 очень
душно
1013.4 1008.6
16 21.03 ЮЗ 3 н/о н/о +24.4 +23.2 93 +33 +33 очень
душно
1013.3 1008.5
17 21.03 ЮЗ 3 н/о н/о +23.9 +22.9 94 +32 +32 очень
душно
1012.6 1007.8
18 21.03 Ю 2 10 км 1/1
[Cu hum]
+23.4 +22.7 96 +33 +33 очень
душно
1012.2 1007.4
20 21.03 ЮЗ 2 н/о н/о +23.7 +23.0 96 +31 +31 очень
душно
1012.2 1007.4
21 21.03 Ю 2 10 км 5/5
[Cu med, cong]
+23.6 +23.1 97 +31 +31 очень
душно
1012.8 1008.0
22 21.03 ЮЗ 1 н/о н/о +23.7 +23.2 97 +32 +32 очень
душно
1013.5 1008.7
23 21.03 С 6 н/о н/о +22.7 +21.3 92 +30 +30 очень
душно
1014.1 1009.3
00 22.03 СВ 6 10 км в посл. час ливневой дождь 1/1
[Sc diur, vesp]
+23.9 +21.0 84 +30 +33 очень
душно
1014.5 1009.7 +22.6 0.0
01 22.03 СВ 7 н/о н/о +23.9 +20.6 82 +30 +30 очень
душно
1015.0 1010.2
02 22.03 СВ 7 н/о н/о +24.0 +20.7 82 +30 +30 очень
душно
1015.1 1010.3
03 22.03 СВ 6 10 км 9/9
[Cu med, cong]
+23.6 +19.8 79 +29 +30 душно 1014.9 1010.1
04 22.03 СВ 5 н/о н/о +24.4 +20.5 79 +30 +30 очень
душно
1014.3 1009.5
05 22.03 СВ 5 н/о н/о +24.7 +19.8 74 +30 +30 очень
душно
1013.8 1009.0
06 22.03 СВ 6 10 км {ливн. осадки} 9/9
[Cu Sc]
+24.5 +20.0 76 +30 +31 очень
душно
1013.4 1008.6 0.0
07 22.03 СВ 7 н/о н/о +23.9 +19.6 77 +29 +29 душно 1013.0 1008.2
08 22.03 СВ 7 н/о н/о +23.3 +19.1 77 +30 +30 очень
душно
1013.2 1008.4
09 22.03 СВ 6 10 км 10/10
[Cu Sc]
+22.7 +18.9 79 +29 +29 очень
душно
1013.6 1008.8
10 22.03 СВ 6 н/о н/о +22.3 +18.9 81 +28 +28 душно 1014.1 1009.3
11 22.03 СВ 6 н/о н/о +22.0 +18.8 82 +27 +27 душно 1014.6 1009.8
12 22.03 СВ 6 10 км 10/10
[Cu Sc]
+21.8 +18.2 80 +27 +27 душно 1015.3 1010.5 +25.8 0.0
13 22.03 СВ 7 н/о н/о +21.7 +17.9 79 +26 +26 душно 1015.6 1010.8
14 22.03 СВ 5 н/о н/о +21.6 +18.0 80 +26 +26 душно 1015.6 1010.8
15 22.03 СВ 6 н/о н/о +21.4 +17.6 79 +26 +26 душно 1015.7 1010.9
16 22.03 СВ 5 н/о н/о +20.7 +17.7 83 +24 +24 комфорт 1015.9 1011.0
17 22.03 СВ 5 н/о н/о +20.6 +17.6 83 +24 +24 комфорт 1015.7 1010.8
18 22.03 СВ 5 10 км в посл. час дождь 10/10
[Cu Sc]
+20.5 +17.3 82 +24 +24 комфорт 1015.8 1010.9 0.0
19 22.03 С 4 н/о н/о +19.8 +17.6 87 +22 +22 комфорт 1016.3 1011.4
20 22.03 С 6 н/о н/о +18.8 +17.7 93 +20 +20 1016.1 1011.2
21 22.03 С 7 10 км слаб. дождь 10/10
[Cu Sc]
+18.7 +17.4 92 +19 +19 1017.2 1012.3
22 22.03 СВ 7 н/о н/о +18.8 +16.6 87 +19 +19 1017.7 1012.8
23 22.03 СВ 7 н/о н/о +18.7 +16.0 84 +19 +19 1018.7 1013.8
00 23.03 СВ 7 10 км слаб. дождь 10/10
[Cu Sc]
+18.5 +15.9 85 +19 +19 1019.2 1014.3 +18.4 0.5
01 23.03 С 7 н/о н/о +18.6 +16.2 86 +19 +19 1019.2 1014.3
02 23.03 С 6 н/о н/о +19.2 +15.1 77 +20 +20 1019.6 1014.7
03 23.03 СВ 6 15 км в посл. час дождь 10/10
[Cu Sc]
+18.8 +15.1 79 +19 +19 1019.1 1014.2
04 23.03 С 7 н/о н/о +19.3 +14.6 74 +20 +20 1018.3 1013.4
05 23.03 С 7 н/о н/о +18.5 +15.2 81 +19 +19 1018.3 1013.4
06 23.03 С 6 20 км в посл. час дождь 10/10
[Cu Sc]
+18.7 +14.4 76 +19 +19 1018.1 1013.2 0.0
07 23.03 С 6 н/о н/о +18.7 +13.8 73 +19 +19 1018.0 1013.1
08 23.03 С 7 н/о н/о +19.1 +13.7 71 +20 +20 1018.1 1013.2
09 23.03 С 7 10 км в посл. час дождь 10/10
[Cu Sc]
+18.9 +14.0 73 +19 +19 1018.5 1013.6
10 23.03 С 8 н/о н/о +18.8 +13.9 73 +19 +19 1018.9 1014.0
11 23.03 С 8 н/о н/о +18.7 +12.7 68 +19 +19 1019.6 1014.7
12 23.03 СВ 7 15 км {дождь} 10/10
[Cu Sc]
+18.8 +12.3 66 +19 +19 1020.4 1015.5 +19.6 0.0
13 23.03 СВ 7 н/о н/о +18.8 +12.3 66 +19 +19 1020.4 1015.5
14 23.03 СВ 8 н/о н/о +18.7 +12.7 68 +19 +19 1020.6 1015.7
15 23.03 СВ 7 н/о н/о +18.5 +11.6 64 +18 +18 1020.9 1016.0
16 23.03 СВ 8 н/о н/о +18.5 +11.6 64 +18 +18 1020.7 1015.8
17 23.03 СВ 7 н/о н/о +18.6 +11.4 63 +19 +19 1019.9 1015.0
18 23.03 СВ 7 15 км 10/8
[Sc Ac As]
+18.4 +11.7 65 +18 +18 1019.8 1014.9
19 23.03 СВ 7 н/о н/о +18.3 +9.9 58 +18 +18 1019.7 1014.8
20 23.03 СВ 5 н/о н/о +18.4 +10.0 58 +18 +18 1019.7 1014.8
21 23.03 СВ 7 15 км 10/5
[Sc Ac As]
+18.3 +10.2 59 +18 +18 1020.2 1015.3
22 23.03 СВ 6 н/о н/о +18.3 +10.7 61 +18 +18 1020.7 1015.8
23 23.03 СВ 6 н/о н/о +18.3 +11.2 63 +18 +18 1021.2 1016.3
00 24.03 СВ 6 15 км в посл. час дождь 10/10
[Sc]
+18.5 +11.1 62 +18 +18 1021.5 1016.6 +18.2 0.0
02 24.03 СВ 4 н/о н/о +19.1 +11.7 62 +20 +20 1021.5 1016.6
03 24.03 В 5 15 км 10/10
[Sc]
+19.1 +11.7 62 +20 +20 1020.8 1015.9
04 24.03 В 4 н/о н/о +18.9 +12.4 66 +20 +20 1020.7 1015.8
05 24.03 СВ 5 н/о н/о +19.1 +11.9 63 +20 +20 1020.1 1015.2
06 24.03 В 4 15 км 10/10
[Sc]
+19.3 +11.9 62 +21 +21 комфорт 1019.1 1014.2
07 24.03 СВ 4 н/о н/о +19.5 +11.5 60 +21 +21 комфорт 1019.3 1014.4
08 24.03 В 4 н/о н/о +19.5 +11.5 60 +21 +21 комфорт 1019.1 1014.2
09 24.03 В 4 15 км 10/10
[Cu Sc]
+19.3 +12.3 64 +20 +20 1019.0 1014.1
10 24.03 В 4 н/о н/о +19.3 +12.6 65 +21 +21 комфорт 1019.0 1014.1
11 24.03 В 5 н/о н/о +19.4 +13.6 69 +21 +21 комфорт 1019.2 1014.3
12 24.03 В 3 15 км 10/10
[Cu Sc]
+19.5 +13.9 70 +21 +21 комфорт 1019.9 1015.0 +19.6
13 24.03 В 4 н/о н/о +19.8 +14.4 71 +22 +22 комфорт 1020.0 1015.1
14 24.03 В 3 н/о н/о +19.7 +14.3 71 +22 +22 комфорт 1019.5 1014.6
15 24.03 В 3 н/о н/о +19.6 +14.4 72 +22 +22 комфорт 1019.2 1014.3
16 24.03 ЮВ 4 н/о н/о +19.9 +14.7 72 +22 +22 комфорт 1018.9 1014.0
17 24.03 В 4 н/о н/о +19.7 +15.0 74 +22 +22 комфорт 1018.1 1013.2
18 24.03 В 3 15 км в посл. час дождь 10/10
[Cu Sc]
+19.8 +15.0 74 +22 +22 комфорт 1017.4 1012.5 0.0
21 24.03 ЮВ 4 20 км 10/10
[Cu Sc]
+20.5 +16.9 80 +24 +24 комфорт 1016.0 1011.1
22 24.03 ЮВ 4 н/о н/о +20.0 +18.0 88 +23 +23 комфорт 1016.0 1011.1
23 24.03 ЮВ 4 н/о н/о +21.1 +18.1 83 +25 +25 комфорт 1016.5 1011.6

 

Местоположение метеостанции Миякодзима (Япония): широта 24.80 долгота 125.28 высота над уровнем моря 41 м.

В архиве по умолчанию представлена погода в Миякодзиме за последнюю неделю. Архивные данные за месяц целиком и за предыдущие месяцы, начиная с января 2011 года, Вы можете получить, выбрав интересующий диапазон дат из раскрывающегося списка и нажав кнопку "Ввод!".


*Определитесь, кто Вы:
робот инопланетянин человек

Внимание! Время в таблицах - всемирное. Для получения местного времени необходимо прибавить поправку, которая равна 9 ч.

Смотрите также архив погоды в соседних городах и на ближайших метеорологических станциях:

Погода в Игисаки (Япония) (125 км)
Погода на Ириомоте (Япония) (159 км)
Погода в Кумедзиме (Япония) (229 км)
Погода на Йонагуни (Япония) (232 км)
Погода в Нахе (Япония) (287 км)
Погода в Наго (Япония) (335 км)
Погода на Пенгджия (Тайвань, Китай) (337 км)
Погода в Тайбэе (Тайвань, Китай) (381 км)
Погода на Окиноэрабу (Япония) (449 км)
Погода в Тайчжуне (Тайвань, Китай) (471 км)

Пояснения к столбцам:

Ветер - указаны скорость ветра в м/с - средняя за 10 мин, порывы в срок и между сроками (в фигурных скобках) и направление, откуда дует ветер: С - северный, СВ - северо-восточный, В - восточный, ЮВ - юго-восточный, Ю - южный, ЮЗ - юго-западный, З - западный, СЗ - северо-западный.
Видимость - горизонтальная дальность видимости в метрах или километрах. При видимости от 1 до 10 км при отсутствии осадков обычно наблюдается дымка, при ухудшении видимости до 1 км и менее - туман. В сухую погоду видимость может ухудшаться дымом, пылью или мглою.
Явления - указаны атмосферные явления, наблюдавшиеся в срок или в последний час перед сроком; фигурными скобками обозначены явления, наблюдавшиеся между сроками (за 1-3 часа до срока); квадратными скобками обозначены град или гололедные отложения с указанием их диаметра в мм.
Облачность - указаны через наклонную черту общая и нижняя облачность в баллах и высота нижней границы облаков в метрах; квадратными скобками обозначены формы облаков: Ci - перистые, Cs - перисто-слоистые, Cc - перисто-кучевые, Ac - высококучевые, As - высокослоистые, Sc - слоисто-кучевые, Ns - слоисто-дождевые, Cu - кучевые, Cb - кучево-дождевые. Подробнее классификацию облаков см. в Атласе облаков (PDF).
T - Температура воздуха - температура, измеренная на высоте 2 м над землей.
Td - Температура точки росы - температура, при понижении до которой содержащийся в воздухе водяной пар достигнет насыщения.
f - Относительная влажность воздуха - влажноcть воздуха, измеренная на высоте 2 м над землей.
Te - Эффективная температура - температура, которую ощущает одетый по сезону человек в тени. Характеристика душности погоды. При расчете учитывается влияние влажности воздуха и скорости ветра на теплоощущения человека.
Tes - Эффективная температура на солнце - температура, которую ощущает человек, с поправкой на солнечный нагрев. Характеристика знойности погоды. Зависит от высоты солнца над горизонтом, облачности и скорости ветра. Ночью, в пасмурную погоду, а также при ветре 12 м/с и более поправка равна нулю.
P - Атмосферное давление - приведенное к уровню моря атмосферное давление.
Po - Атмосферное давление - измеренное на уровне метеостанции атмосферное давление.
Tmin - Минимальная температура - минимум температуры воздуха на высоте 2 м над землей.
Tmax - Максимальная температура - максимум температуры воздуха на высоте 2 м над землей.
R - Количество осадков - Количество выпавших осадков за период времени, мм. При наведении курсора мыши на число - период времени, за который выпало указанное количество осадков.
R24 - Количество осадков - Количество выпавших осадков за 24 часа, мм.
S - Снежный покров - Высота снежного покрова, см. При наведении курсора мыши на число - состояние снежного покрова и степень покрытия местности в баллах.